WX4BK-13 Weather Reports


time (UTC)temp
C
wind
direction
speed
KPH
gust
KPH
rain 1hr
cm
rain 24hr
cm
rain mn
cm
humidity
%
barometer
mb
20260504180327 25 0 0.0 0.0 0.00 0.00 0.00 4 1015.3
20260504175726 25 0 0.0 0.0 0.00 0.00 0.00 4 1015.4
20260504175426 25 0 0.0 0.0 0.00 0.00 0.00 4 1015.4
20260504174827 24 0 0.0 0.0 0.00 0.00 0.00 4 1015.5
20260504174526 24 0 0.0 0.0 0.00 0.00 0.00 4 1015.5
20260504174230 24 0 0.0 0.0 0.00 0.00 0.00 4 1015.6
20260504173928 24 0 0.0 0.0 0.00 0.00 0.00 4 1015.5
20260504173628 23 0 0.0 0.0 0.00 0.00 0.00 4 1015.6
20260504173329 23 0 0.0 0.0 0.00 0.00 0.00 4 1015.7
20260504173027 23 0 0.0 0.0 0.00 0.00 0.00 4 1015.7
20260504172726 23 0 0.0 0.0 0.00 0.00 0.00 4 1015.8
20260504172426 23 0 0.0 0.0 0.00 0.00 0.00 4 1015.9
20260504172126 23 0 1.6 6.4 0.00 0.00 0.00 4 1015.9
20260504171528 24 270 1.6 8.0 0.00 0.00 0.00 4 1016.0
20260504171227 25 270 1.6 6.4 0.00 0.00 0.00 4 1015.8
20260504170927 25 0 0.0 0.0 0.00 0.00 0.00 4 1015.8
20260504160328 22 247 0.0 4.8 0.00 0.00 0.00 5 1017.0
20260504150926 21 295 6.4 9.7 0.00 0.00 0.00 5 1017.3
20260504150627 21 291 8.0 11.3 0.00 0.00 0.00 5 1017.3
20260504150327 21 0 1.6 6.4 0.00 0.00 0.00 5 1017.5
20260504141226 18 225 0.0 3.2 0.00 0.00 0.00 6 1018.2
20260504140926 18 225 1.6 8.0 0.00 0.00 0.00 6 1018.2
20260504140626 18 202 1.6 4.8 0.00 0.00 0.00 6 1018.3
20260504140326 18 0 0.0 0.0 0.00 0.00 0.00 6 1018.3
20260504130626 13 0 0.0 0.0 0.00 0.00 0.00 9 1018.8
20260504130326 12 0 0.0 0.0 0.00 0.00 0.00 8 1018.9
20260504110626 3 0 0.0 0.0 0.00 0.00 0.00 9 1019.9
20260504110326 3 0 0.0 0.0 0.00 0.00 0.00 9 1019.9
20260504100326 3 0 0.0 0.0 0.00 0.00 0.00 9 1019.7
20260504081827 4 0 0.0 0.0 0.00 0.00 0.00 9 1019.6
20260504081527 4 0 0.0 0.0 0.00 0.00 0.00 9 1019.6
20260504081227 4 0 0.0 0.0 0.00 0.00 0.00 9 1019.6
20260504080927 4 0 0.0 0.0 0.00 0.00 0.00 9 1019.5
20260504080627 4 0 0.0 0.0 0.00 0.00 0.00 9 1019.5
20260504080327 4 0 0.0 0.0 0.00 0.00 0.00 9 1019.6
20260504070326 5 0 0.0 0.0 0.00 0.00 0.00 9 1019.8
20260504050626 6 0 0.0 0.0 0.00 0.00 0.00 9 1020.4
20260504050326 6 0 0.0 0.0 0.00 0.00 0.00 9 1020.4
20260504045726 6 0 0.0 0.0 0.00 0.00 0.00 9 1020.3
20260504045426 6 0 0.0 0.0 0.00 0.00 0.00 9 1020.3
20260504044826 6 0 0.0 0.0 0.00 0.00 0.00 9 1020.4
20260504044526 6 0 0.0 0.0 0.00 0.00 0.00 9 1020.4
20260504044226 6 0 0.0 0.0 0.00 0.00 0.00 9 1020.4
20260504043926 6 0 0.0 0.0 0.00 0.00 0.00 9 1020.4
20260504043626 6 0 0.0 0.0 0.00 0.00 0.00 9 1020.4
20260504043326 6 0 0.0 0.0 0.00 0.00 0.00 9 1020.4
20260504043026 6 0 0.0 0.0 0.00 0.00 0.00 9 1020.5
20260504042726 6 0 0.0 0.0 0.00 0.00 0.00 9 1020.4
20260504042426 6 0 0.0 0.0 0.00 0.00 0.00 9 1020.5
20260504042126 6 0 0.0 0.0 0.00 0.00 0.00 9 1020.6
20260504041526 6 0 0.0 0.0 0.00 0.00 0.00 9 1020.7
20260504041227 6 0 0.0 0.0 0.00 0.00 0.00 9 1020.7
20260504040927 6 0 0.0 0.0 0.00 0.00 0.00 9 1020.7
20260504040627 6 0 0.0 0.0 0.00 0.00 0.00 9 1020.7
20260504040327 6 0 0.0 0.0 0.00 0.00 0.00 9 1020.7
20260504040027 6 0 0.0 0.0 0.00 0.00 0.00 9 1020.6
20260504035727 6 0 0.0 0.0 0.00 0.00 0.00 9 1020.6
20260504035427 6 0 0.0 0.0 0.00 0.00 0.00 9 1020.6
20260504034827 7 0 0.0 0.0 0.00 0.00 0.00 9 1020.6
20260504034527 7 0 0.0 0.0 0.00 0.00 0.00 9 1020.5
20260504034227 7 0 0.0 0.0 0.00 0.00 0.00 9 1020.6
20260504033927 7 0 0.0 0.0 0.00 0.00 0.00 9 1020.6
20260504033627 7 0 0.0 0.0 0.00 0.00 0.00 9 1020.5
20260504033327 7 0 0.0 0.0 0.00 0.00 0.00 9 1020.4
20260504033027 7 0 0.0 0.0 0.00 0.00 0.00 9 1020.5
20260504032727 7 0 0.0 0.0 0.00 0.00 0.00 9 1020.5
20260504032427 7 0 0.0 0.0 0.00 0.00 0.00 9 1020.5
20260504032126 7 0 0.0 0.0 0.00 0.00 0.00 9 1020.5
20260504031827 7 0 0.0 0.0 0.00 0.00 0.00 9 1020.5
20260504031526 7 0 0.0 0.0 0.00 0.00 0.00 9 1020.5
20260504031226 7 0 0.0 0.0 0.00 0.00 0.00 9 1020.5
20260504030926 7 0 0.0 0.0 0.00 0.00 0.00 9 1020.4
20260504030626 7 0 0.0 0.0 0.00 0.00 0.00 9 1020.3
20260504030326 7 0 0.0 0.0 0.00 0.00 0.00 9 1020.3
20260504030026 7 0 0.0 0.0 0.00 0.00 0.00 9 1020.3
20260504025726 7 0 0.0 0.0 0.00 0.00 0.00 9 1020.3
20260504025426 7 0 0.0 0.0 0.00 0.00 0.00 9 1020.3
20260504024826 8 0 0.0 0.0 0.00 0.00 0.00 9 1020.3
20260504024526 8 0 0.0 0.0 0.00 0.00 0.00 9 1020.3
20260504024226 8 0 0.0 0.0 0.00 0.00 0.00 9 1020.3
20260504023926 8 0 0.0 0.0 0.00 0.00 0.00 9 1020.2
20260504023626 8 0 0.0 0.0 0.00 0.00 0.00 9 1020.2
20260504023326 8 0 0.0 0.0 0.00 0.00 0.00 9 1020.1
20260504023026 8 0 0.0 0.0 0.00 0.00 0.00 9 1020.1
20260504022726 8 0 0.0 0.0 0.00 0.00 0.00 9 1020.1
20260504022426 8 0 0.0 0.0 0.00 0.00 0.00 9 1020.0
20260504022126 8 0 0.0 0.0 0.00 0.00 0.00 9 1019.9
20260504021826 8 0 0.0 0.0 0.00 0.00 0.00 9 1019.9
20260504021526 8 0 0.0 0.0 0.00 0.00 0.00 9 1019.8
20260504021226 8 0 0.0 0.0 0.00 0.00 0.00 9 1019.8
20260504020926 9 0 0.0 0.0 0.00 0.00 0.00 8 1019.7
20260504020626 9 0 0.0 0.0 0.00 0.00 0.00 9 1019.7
20260504020326 9 0 0.0 0.0 0.00 0.00 0.00 8 1019.6
20260504020026 9 0 0.0 0.0 0.00 0.00 0.00 9 1019.6
20260504015726 10 0 0.0 0.0 0.00 0.00 0.00 8 1019.6
20260504015426 10 0 0.0 0.0 0.00 0.00 0.00 8 1019.4
20260504014826 10 0 0.0 0.0 0.00 0.00 0.00 8 1019.4
20260504014526 10 0 0.0 0.0 0.00 0.00 0.00 8 1019.4
20260504014226 10 0 0.0 0.0 0.00 0.00 0.00 8 1019.3
20260504013926 10 0 0.0 0.0 0.00 0.00 0.00 8 1019.1
20260504013626 10 0 0.0 0.0 0.00 0.00 0.00 8 1019.0
20260504013326 11 0 0.0 0.0 0.00 0.00 0.00 8 1019.1
20260504013026 11 0 0.0 0.0 0.00 0.00 0.00 8 1019.0
20260504012726 11 0 0.0 0.0 0.00 0.00 0.00 8 1019.0
20260504012426 11 0 0.0 0.0 0.00 0.00 0.00 8 1018.9
20260504012126 11 0 0.0 0.0 0.00 0.00 0.00 8 1018.8
20260504011526 12 0 0.0 0.0 0.00 0.00 0.00 8 1018.7
20260504011226 12 0 0.0 0.0 0.00 0.00 0.00 8 1018.6
20260504010926 12 0 0.0 0.0 0.00 0.00 0.00 8 1018.5
20260504010626 12 0 0.0 0.0 0.00 0.00 0.00 7 1018.5
20260504010326 12 0 0.0 0.0 0.00 0.00 0.00 7 1018.4
20260504005726 13 0 0.0 0.0 0.00 0.00 0.00 7 1018.2
20260504005426 13 0 0.0 0.0 0.00 0.00 0.00 7 1018.1
20260504004826 14 0 0.0 0.0 0.00 0.00 0.00 7 1018.0
20260504004526 15 0 0.0 0.0 0.00 0.00 0.00 7 1018.0
20260504004226 15 0 0.0 0.0 0.00 0.00 0.00 6 1017.9
20260504003926 15 0 0.0 0.0 0.00 0.00 0.00 6 1017.8
20260504003626 16 0 0.0 0.0 0.00 0.00 0.00 6 1017.6
20260504003326 16 0 0.0 0.0 0.00 0.00 0.00 6 1017.6
20260504003026 17 0 0.0 0.0 0.00 0.00 0.00 6 1017.5
20260504002726 17 0 0.0 0.0 0.00 0.00 0.00 6 1017.4
20260504002426 17 0 0.0 0.0 0.00 0.00 0.00 6 1017.3
20260504002126 17 0 0.0 0.0 0.00 0.00 0.00 5 1017.3
20260504001526 19 0 0.0 0.0 0.00 0.00 0.00 5 1017.1
20260504001226 20 0 0.0 0.0 0.00 0.00 0.00 5 1017.0
20260504000926 21 0 0.0 0.0 0.00 0.00 0.00 5 1016.9
20260504000626 21 0 0.0 0.0 0.00 0.00 0.00 4 1016.8
20260504000327 21 0 0.0 0.0 0.00 0.00 0.00 4 1016.9
20260504000027 21 0 0.0 0.0 0.00 0.00 0.00 4 1016.8
20260503235727 21 0 0.0 0.0 0.00 0.00 0.00 4 1016.8
20260503235427 21 0 0.0 0.0 0.00 0.00 0.00 4 1016.8
20260503234827 21 0 0.0 0.0 0.00 0.00 0.00 4 1016.8
20260503234527 21 0 0.0 0.0 0.00 0.00 0.00 4 1016.8
20260503234227 21 0 0.0 0.0 0.00 0.00 0.00 4 1016.9
20260503233927 21 0 0.0 0.0 0.00 0.00 0.00 4 1016.8
20260503233627 21 0 0.0 0.0 0.00 0.00 0.00 4 1016.8
20260503233327 21 318 3.2 6.4 0.00 0.00 0.00 4 1016.9
20260503233027 21 313 6.4 9.7 0.00 0.00 0.00 4 1016.9
20260503232727 21 308 6.4 6.4 0.00 0.00 0.00 4 1016.9
20260503232427 21 299 6.4 9.7 0.00 0.00 0.00 4 1016.8
20260503232127 21 323 6.4 11.3 0.00 0.00 0.00 4 1016.7
20260503231826 22 270 1.6 3.2 0.00 0.00 0.00 4 1016.7
20260503231526 21 337 6.4 8.0 0.00 0.00 0.00 4 1016.7
20260503231227 21 303 4.8 8.0 0.00 0.00 0.00 4 1016.7
20260503230927 22 326 6.4 11.3 0.00 0.00 0.00 4 1016.8
20260503230626 22 316 3.2 6.4 0.00 0.00 0.00 4 1016.8
20260503230326 21 245 3.2 4.8 0.00 0.00 0.00 4 1016.9
20260503230026 21 286 4.8 6.4 0.00 0.00 0.00 4 1016.9
20260503225726 21 315 3.2 8.0 0.00 0.00 0.00 4 1016.8
20260503225426 21 292 3.2 8.0 0.00 0.00 0.00 4 1016.8
20260503224827 22 3 6.4 9.7 0.00 0.00 0.00 4 1016.7
20260503224527 22 0 0.0 3.2 0.00 0.00 0.00 4 1016.8
20260503224227 22 290 8.0 11.3 0.00 0.00 0.00 4 1016.8
20260503223927 21 266 4.8 9.7 0.00 0.00 0.00 4 1016.8
20260503223627 22 341 11.3 12.9 0.00 0.00 0.00 3 1016.8
20260503223326 22 326 8.0 11.3 0.00 0.00 0.00 3 1016.7
20260503223027 22 13 8.0 9.7 0.00 0.00 0.00 3 1016.7
20260503222726 22 337 3.2 9.7 0.00 0.00 0.00 4 1016.7
20260503222427 22 301 4.8 9.7 0.00 0.00 0.00 3 1016.7
20260503222126 23 337 3.2 11.3 0.00 0.00 0.00 3 1016.6
20260503221826 22 282 3.2 6.4 0.00 0.00 0.00 3 1016.7
20260503221526 22 328 6.4 11.3 0.00 0.00 0.00 3 1016.8
20260503221226 22 329 8.0 12.9 0.00 0.00 0.00 3 1016.8
20260503220926 24 333 6.4 9.7 0.00 0.00 0.00 3 1016.5
20260503220626 23 307 4.8 6.4 0.00 0.00 0.00 3 1016.6
20260503220326 22 304 3.2 6.4 0.00 0.00 0.00 4 1016.7
20260503220026 22 0 0.0 3.2 0.00 0.00 0.00 4 1016.9
20260503215726 21 270 3.2 6.4 0.00 0.00 0.00 4 1017.0
20260503215426 21 264 4.8 8.0 0.00 0.00 0.00 4 1017.0
20260503214826 21 296 4.8 8.0 0.00 0.00 0.00 4 1017.0
20260503214526 21 22 1.6 3.2 0.00 0.00 0.00 4 1017.1
20260503214226 20 0 0.0 0.0 0.00 0.00 0.00 4 1017.1
20260503213926 20 301 6.4 11.3 0.00 0.00 0.00 3 1017.2
20260503213626 20 351 9.7 12.9 0.00 0.00 0.00 3 1017.2
20260503213326 21 4 6.4 9.7 0.00 0.00 0.00 3 1017.2
20260503213026 21 314 9.7 12.9 0.00 0.00 0.00 3 1017.1
20260503212726 20 268 3.2 4.8 0.00 0.00 0.00 3 1017.3
20260503212426 20 270 1.6 4.8 0.00 0.00 0.00 3 1017.3
20260503212126 21 275 9.7 14.5 0.00 0.00 0.00 3 1017.3
20260503211826 21 337 9.7 16.1 0.00 0.00 0.00 3 1017.2
20260503211226 21 288 8.0 12.9 0.00 0.00 0.00 3 1017.2
20260503210926 21 337 4.8 14.5 0.00 0.00 0.00 4 1017.1
20260503210626 21 287 4.8 12.9 0.00 0.00 0.00 4 1017.2
20260503210326 20 286 4.8 6.4 0.00 0.00 0.00 4 1017.2
20260503210026 20 17 3.2 6.4 0.00 0.00 0.00 4 1017.3
20260503205726 20 328 8.0 9.7 0.00 0.00 0.00 3 1017.3
20260503205426 20 320 8.0 11.3 0.00 0.00 0.00 3 1017.3
20260503204826 21 291 8.0 9.7 0.00 0.00 0.00 4 1017.3
20260503204526 20 337 12.9 22.5 0.00 0.00 0.00 4 1017.4
20260503204226 20 0 0.0 0.0 0.00 0.00 0.00 4 1017.4
20260503203926 21 300 9.7 12.9 0.00 0.00 0.00 4 1017.4
20260503203626 20 320 9.7 11.3 0.00 0.00 0.00 4 1017.5
20260503203326 20 243 3.2 4.8 0.00 0.00 0.00 4 1017.5
20260503203026 20 269 6.4 11.3 0.00 0.00 0.00 4 1017.6
20260503202726 20 334 9.7 16.1 0.00 0.00 0.00 4 1017.8
20260503202426 20 5 3.2 6.4 0.00 0.00 0.00 3 1017.8
20260503202126 20 349 8.0 11.3 0.00 0.00 0.00 3 1017.8
20260503201826 20 333 11.3 14.5 0.00 0.00 0.00 3 1017.8
20260503201526 20 359 8.0 11.3 0.00 0.00 0.00 4 1018.0
20260503201226 21 348 12.9 16.1 0.00 0.00 0.00 4 1017.9
20260503200926 21 356 6.4 12.9 0.00 0.00 0.00 4 1018.0
20260503200626 21 327 4.8 8.0 0.00 0.00 0.00 4 1018.1
20260503200326 20 244 1.6 4.8 0.00 0.00 0.00 4 1018.2
20260503200026 20 291 9.7 14.5 0.00 0.00 0.00 4 1018.2
20260503195726 21 266 6.4 12.9 0.00 0.00 0.00 4 1018.2
20260503195426 21 287 8.0 14.5 0.00 0.00 0.00 4 1018.2
20260503194827 20 350 4.8 9.7 0.00 0.00 0.00 4 1018.4
20260503194527 21 330 9.7 12.9 0.00 0.00 0.00 4 1018.4
20260503194227 20 322 4.8 8.0 0.00 0.00 0.00 4 1018.4
20260503193927 21 321 8.0 11.3 0.00 0.00 0.00 4 1018.5
20260503193627 21 335 3.2 4.8 0.00 0.00 0.00 4 1018.5
20260503193327 20 184 1.6 3.2 0.00 0.00 0.00 4 1018.6
20260503193027 21 208 3.2 4.8 0.00 0.00 0.00 4 1018.7
20260503192727 20 292 1.6 4.8 0.00 0.00 0.00 4 1018.9
20260503192427 20 53 4.8 8.0 0.00 0.00 0.00 4 1018.8
20260503192127 21 309 8.0 9.7 0.00 0.00 0.00 4 1018.8
20260503191527 20 220 3.2 6.4 0.00 0.00 0.00 4 1018.9
20260503191227 20 170 4.8 4.8 0.00 0.00 0.00 4 1019.0
20260503190927 20 284 6.4 9.7 0.00 0.00 0.00 4 1019.1
20260503190627 20 270 6.4 9.7 0.00 0.00 0.00 4 1019.1
20260503190327 20 343 4.8 9.7 0.00 0.00 0.00 4 1019.2
20260503190027 20 329 11.3 14.5 0.00 0.00 0.00 4 1019.2
20260503185726 20 300 6.4 9.7 0.00 0.00 0.00 4 1019.1
20260503185427 20 294 4.8 6.4 0.00 0.00 0.00 4 1019.1
20260503184826 20 212 1.6 4.8 0.00 0.00 0.00 4 1019.1
20260503184526 20 272 4.8 6.4 0.00 0.00 0.00 4 1019.3
20260503184226 20 354 6.4 9.7 0.00 0.00 0.00 4 1019.4
20260503183926 20 310 8.0 12.9 0.00 0.00 0.00 4 1019.3
20260503183626 20 316 3.2 6.4 0.00 0.00 0.00 4 1019.4
20260503183327 20 342 4.8 9.7 0.00 0.00 0.00 4 1019.4
20260503183026 20 337 9.7 9.7 0.00 0.00 0.00 4 1019.4
20260503182726 20 298 4.8 6.4 0.00 0.00 0.00 4 1019.5
20260503182426 20 244 1.6 4.8 0.00 0.00 0.00 4 1019.5
20260503182127 19 274 4.8 6.4 0.00 0.00 0.00 4 1019.7
20260503181826 19 217 4.8 8.0 0.00 0.00 0.00 4 1019.7
20260503181526 20 276 4.8 9.7 0.00 0.00 0.00 4 1019.6
20260503181226 20 2 4.8 6.4 0.00 0.00 0.00 4 1019.6
20260503180926 19 159 4.8 9.7 0.00 0.00 0.00 4 1019.7
20260503180626 20 225 6.4 9.7 0.00 0.00 0.00 4 1019.7